Regional Weather Roundup
Issued by NWS Cleveland, OH

Home | Current Version | Previous Version | Text Only | Print | Product List | Glossary Off
Versions: 1 2 3 4 5 6 7 8 9 10 11 12 13 14 15 16 17 18 19 20 21 22 23 24 25 26 27 28 29 30 31 32 33 34 35 36 37 38 39 40 41 42 43 44 45 46 47 48 49 50

000
ASUS41 KCLE 062210
RWRCLE
OHIO REGIONAL WEATHER ROUNDUP
NATIONAL WEATHER SERVICE WILMINGTON, OH
600 PM EDT WED MAY 06 2015

NOTE: "FAIR" INDICATES FEW OR NO CLOUDS BELOW 12,000 FEET WITH NO
SIGNIFICANT WEATHER AND/OR OBSTRUCTIONS TO VISIBILITY.

OHZ001>008-015>018-024>027-034-035-043-044-062300-
   NORTHWEST OHIO

CITY           SKY/WX    TMP DP  RH WIND       PRES   REMARKS
DEFIANCE       SUNNY     76  61  59 NE6       30.15F
FINDLAY        SUNNY     79  59  50 NE9       30.14F
TOLEDO EXPRESS SUNNY     68  57  68 VRB6      30.17F
TOLEDO EXEC    SUNNY     66  56  70 E12       30.19F
LIMA           SUNNY     79  58  48 N8        30.14F
$$

OHZ009>014-019>023-028>033-038-089-062300-
   NORTHEAST OHIO

CITY           SKY/WX    TMP DP  RH WIND       PRES   REMARKS
CLE-HOPKINS    MOSUNNY   68  56  65 N7        30.20S
CLE-LAKEFRONT  FOG       52  51  97 NW3       30.18F VSB 1/4
CUY CO. ARPT   MOSUNNY   72  59  64 N12       30.19F
LORAIN-ELYRIA  SUNNY     71  57  61 NE13      30.18S
ASHTABULA      SUNNY     70  58  65 VRB7      30.19S
AKRON-CANTON   MOSUNNY   82  57  42 NW7       30.15S
WOOSTER        SUNNY     80  58  46 N8        30.15F
MANSFIELD      SUNNY     79  59  50 NW10      30.16F
YOUNGSTOWN     PTSUNNY   76  59  55 N10       30.16S
$$

OHZ042-051>053-060>062-070>072-077>081-062300-
  SOUTHWEST OHIO

CITY           SKY/WX    TMP DP  RH WIND       PRES   REMARKS
CINC-COVINGTON MOSUNNY   84  53  34 CALM      30.12F
CINC-LUNKEN    MOSUNNY   84  53  34 NE3       30.10F
HAMILTON       SUNNY     85  55  35 N7        30.12F
DAYTON         MOSUNNY   83  57  41 NE10      30.14F
WRIGHT-PAT AFB NOT AVBL
DAYTON GENERAL MOSUNNY   84  53  34 CALM      30.12F
WILMINGTON     SUNNY     84  49  29 CALM      30.12F
$$

OHZ036-037-039>041-045>050-054>059-063>069-073>076-082>088-062300-
  CENTRAL AND SOUTHEAST OHIO

CITY           SKY/WX    TMP DP  RH WIND       PRES   REMARKS
COLUMBUS       MOSUNNY   82  55  39 N8        30.11F
OSU AIRPORT    MOSUNNY   83  55  38 NW8       30.12F
BOLTON FIELD   NOT AVBL
RICKENBACK AFB SUNNY     83  54  36 NE6       30.11S
NEWARK         MOSUNNY   83  54  36 N3        30.12S
MARION         MOSUNNY   81  57  43 N12       30.14F
LANCASTER      MOSUNNY   85  51  31 N5        30.12F
ZANESVILLE     SUNNY     82  51  34 NW5       30.12F
NEW PHILLY     PTSUNNY   80  58  46 CALM      30.14F
$$


USA.gov is the U.S. government's official web portal to all federal, state and local government web resources and services.